| time (UTC) | temp F | wind direction | speed MPH | gust MPH | rain 1hr in | rain 24hr in | rain mn in | humidity % | barometer mb |
| 20260831225551 | 67 | 0 | 0.0 | 0.0 | 0.00 | 0.09 | 0.01 | 73 | 1017.8 |
| 20260831225051 | 68 | 0 | 0.0 | 0.0 | 0.00 | 0.09 | 0.01 | 72 | 1017.8 |
| 20260831224604 | 69 | 0 | 0.0 | 0.0 | 0.00 | 0.09 | 0.01 | 71 | 1017.8 |
| 20260831224050 | 70 | 0 | 0.0 | 0.0 | 0.00 | 0.09 | 0.01 | 68 | 1017.6 |
| 20260831223547 | 71 | 0 | 0.0 | 0.0 | 0.00 | 0.09 | 0.01 | 68 | 1017.5 |
| 20260831223102 | 71 | 0 | 0.0 | 0.0 | 0.00 | 0.09 | 0.01 | 65 | 1017.8 |
| 20260831222549 | 72 | 0 | 0.0 | 0.0 | 0.00 | 0.09 | 0.01 | 62 | 1017.8 |
| 20260831222050 | 73 | 0 | 0.0 | 0.0 | 0.00 | 0.09 | 0.01 | 60 | 1017.8 |
| 20260831221604 | 74 | 0 | 0.0 | 0.0 | 0.00 | 0.09 | 0.01 | 58 | 1017.7 |
| 20260831221051 | 75 | 0 | 0.0 | 0.0 | 0.00 | 0.09 | 0.01 | 54 | 1017.8 |
| 20260831220552 | 75 | 0 | 0.0 | 0.0 | 0.00 | 0.09 | 0.01 | 50 | 1017.9 |
| 20260831220111 | 75 | 0 | 0.0 | 0.0 | 0.00 | 0.09 | 0.01 | 50 | 1017.8 |
| 20260831215551 | 75 | 0 | 0.0 | 3.0 | 0.00 | 0.09 | 0.01 | 49 | 1017.8 |
| 20260831215051 | 76 | 0 | 0.0 | 3.0 | 0.00 | 0.09 | 0.01 | 50 | 1017.8 |
| 20260831214625 | 76 | 0 | 0.0 | 4.0 | 0.00 | 0.09 | 0.01 | 47 | 1017.8 |
| 20260831214050 | 76 | 0 | 1.0 | 4.0 | 0.00 | 0.09 | 0.01 | 47 | 1017.8 |
| 20260831213550 | 77 | 0 | 0.0 | 5.0 | 0.00 | 0.09 | 0.01 | 47 | 1017.7 |
| 20260831213059 | 77 | 0 | 0.0 | 6.0 | 0.00 | 0.09 | 0.01 | 46 | 1017.6 |
| 20260831212550 | 77 | 0 | 0.0 | 6.0 | 0.00 | 0.09 | 0.01 | 46 | 1017.7 |
| 20260831212047 | 77 | 0 | 0.0 | 8.0 | 0.00 | 0.09 | 0.01 | 45 | 1017.6 |
| 20260831211602 | 77 | 0 | 0.0 | 8.0 | 0.00 | 0.09 | 0.01 | 46 | 1017.6 |
| 20260831211054 | 77 | 0 | 0.0 | 7.0 | 0.00 | 0.09 | 0.01 | 46 | 1017.6 |
| 20260831210550 | 77 | 0 | 0.0 | 7.0 | 0.00 | 0.09 | 0.01 | 46 | 1017.6 |
| 20260831205551 | 77 | 0 | 0.0 | 6.0 | 0.00 | 0.09 | 0.01 | 45 | 1017.7 |
| 20260831205051 | 77 | 0 | 0.0 | 7.0 | 0.00 | 0.09 | 0.01 | 44 | 1017.8 |
| 20260831204604 | 77 | 0 | 0.0 | 7.0 | 0.00 | 0.09 | 0.01 | 46 | 1017.9 |
| 20260831204051 | 78 | 0 | 0.0 | 6.0 | 0.00 | 0.09 | 0.01 | 42 | 1018.0 |
| 20260831203549 | 78 | 0 | 1.0 | 8.0 | 0.00 | 0.09 | 0.01 | 42 | 1018.1 |
| 20260831203059 | 78 | 0 | 1.0 | 8.0 | 0.00 | 0.09 | 0.01 | 44 | 1018.1 |
| 20260831202551 | 78 | 0 | 0.0 | 9.0 | 0.00 | 0.09 | 0.01 | 42 | 1018.1 |
| 20260831202051 | 77 | 0 | 1.0 | 9.0 | 0.00 | 0.09 | 0.01 | 43 | 1018.0 |
| 20260831201604 | 77 | 0 | 0.0 | 8.0 | 0.00 | 0.09 | 0.01 | 42 | 1018.2 |
| 20260831201047 | 77 | 359 | 0.0 | 8.0 | 0.00 | 0.09 | 0.01 | 40 | 1018.4 |
| 20260831200552 | 77 | 0 | 1.0 | 9.0 | 0.00 | 0.09 | 0.01 | 41 | 1018.3 |
| 20260831200112 | 77 | 0 | 1.0 | 9.0 | 0.00 | 0.09 | 0.01 | 42 | 1018.4 |
| 20260831195551 | 77 | 261 | 0.0 | 8.0 | 0.00 | 0.09 | 0.01 | 44 | 1018.3 |
| 20260831195051 | 77 | 0 | 0.0 | 8.0 | 0.00 | 0.09 | 0.01 | 45 | 1018.3 |
| 20260831194805 | 78 | 298 | 0.0 | 8.0 | 0.00 | 0.09 | 0.01 | 45 | 1018.5 |
| 20260831192552 | 78 | 278 | 2.0 | 9.0 | 0.00 | 0.09 | 0.01 | 38 | 1018.4 |
| 20260831192051 | 78 | 0 | 1.0 | 9.0 | 0.00 | 0.09 | 0.01 | 33 | 1018.7 |
| 20260831191602 | 78 | 0 | 0.0 | 5.0 | 0.00 | 0.09 | 0.01 | 40 | 1018.5 |
| 20260831191052 | 78 | 205 | 0.0 | 7.0 | 0.00 | 0.09 | 0.01 | 40 | 1018.4 |
| 20260831190552 | 77 | 0 | 0.0 | 8.0 | 0.00 | 0.09 | 0.01 | 38 | 1018.3 |
| 20260831190115 | 77 | 0 | 0.0 | 8.0 | 0.00 | 0.09 | 0.01 | 39 | 1018.5 |
| 20260831185552 | 77 | 263 | 0.0 | 9.0 | 0.00 | 0.09 | 0.01 | 40 | 1018.5 |
| 20260831185051 | 77 | 0 | 1.0 | 9.0 | 0.00 | 0.09 | 0.01 | 41 | 1018.6 |
| 20260831184605 | 77 | 21 | 0.0 | 8.0 | 0.00 | 0.09 | 0.01 | 40 | 1018.6 |
| 20260831184051 | 77 | 274 | 0.0 | 10.0 | 0.00 | 0.09 | 0.01 | 44 | 1018.7 |
| 20260831183551 | 77 | 273 | 0.0 | 10.0 | 0.00 | 0.09 | 0.01 | 41 | 1018.7 |
| 20260831183107 | 77 | 286 | 3.0 | 10.0 | 0.00 | 0.09 | 0.01 | 41 | 1018.6 |
| 20260831182551 | 77 | 0 | 0.0 | 4.0 | 0.00 | 0.09 | 0.01 | 39 | 1018.8 |
| 20260831182140 | 77 | 0 | 0.0 | 4.0 | 0.00 | 0.09 | 0.01 | 43 | 1018.8 |
| 20260831182056 | 77 | 0 | 0.0 | 4.0 | 0.00 | 0.09 | 0.01 | 43 | 1018.8 |
| 20260831181602 | 77 | 0 | 0.0 | 9.0 | 0.00 | 0.09 | 0.01 | 46 | 1018.9 |
| 20260831181052 | 77 | 0 | 0.0 | 9.0 | 0.00 | 0.09 | 0.01 | 45 | 1019.0 |
| 20260831180552 | 77 | 0 | 0.0 | 3.0 | 0.00 | 0.09 | 0.01 | 45 | 1018.8 |
| 20260831180106 | 77 | 303 | 0.0 | 3.0 | 0.00 | 0.09 | 0.01 | 50 | 1018.8 |
| 20260831175557 | 76 | 0 | 0.0 | 3.0 | 0.00 | 0.09 | 0.01 | 47 | 1018.7 |
| 20260831175051 | 76 | 0 | 0.0 | 3.0 | 0.00 | 0.09 | 0.01 | 50 | 1018.8 |
| 20260831174609 | 76 | 0 | 0.0 | 6.0 | 0.00 | 0.09 | 0.01 | 47 | 1018.8 |
| 20260831174051 | 76 | 0 | 0.0 | 6.0 | 0.00 | 0.09 | 0.01 | 47 | 1019.1 |
| 20260831173625 | 76 | 0 | 1.0 | 6.0 | 0.00 | 0.09 | 0.01 | 52 | 1019.1 |
| 20260831173102 | 75 | 0 | 0.0 | 4.0 | 0.00 | 0.09 | 0.01 | 51 | 1018.9 |
| 20260831172551 | 75 | 0 | 0.0 | 4.0 | 0.00 | 0.09 | 0.01 | 51 | 1019.1 |
| 20260831172051 | 75 | 278 | 0.0 | 6.0 | 0.00 | 0.09 | 0.01 | 51 | 1019.1 |
| 20260831171616 | 74 | 0 | 2.0 | 9.0 | 0.00 | 0.09 | 0.01 | 50 | 1019.3 |
| 20260831171052 | 75 | 0 | 0.0 | 9.0 | 0.00 | 0.09 | 0.01 | 51 | 1019.3 |
| 20260831170552 | 75 | 0 | 2.0 | 9.0 | 0.00 | 0.09 | 0.01 | 48 | 1019.4 |
| 20260831170121 | 75 | 0 | 0.0 | 7.0 | 0.00 | 0.09 | 0.01 | 48 | 1019.4 |
| 20260831165552 | 75 | 0 | 0.0 | 5.0 | 0.00 | 0.09 | 0.01 | 46 | 1019.5 |
| 20260831165051 | 74 | 0 | 0.0 | 1.0 | 0.00 | 0.09 | 0.01 | 43 | 1019.5 |
| 20260831164608 | 74 | 0 | 0.0 | 0.0 | 0.00 | 0.09 | 0.01 | 45 | 1019.5 |
| 20260831164053 | 74 | 0 | 0.0 | 8.0 | 0.00 | 0.09 | 0.01 | 44 | 1019.6 |
| 20260831163551 | 74 | 0 | 0.0 | 8.0 | 0.00 | 0.09 | 0.01 | 45 | 1019.6 |
| 20260831163059 | 74 | 0 | 0.0 | 6.0 | 0.00 | 0.09 | 0.01 | 41 | 1019.5 |
| 20260831162552 | 73 | 0 | 0.0 | 6.0 | 0.00 | 0.09 | 0.01 | 43 | 1019.4 |
| 20260831162050 | 73 | 0 | 0.0 | 6.0 | 0.00 | 0.09 | 0.01 | 47 | 1019.5 |
| 20260831161606 | 73 | 0 | 0.0 | 6.0 | 0.00 | 0.09 | 0.01 | 45 | 1019.5 |
| 20260831161051 | 73 | 0 | 0.0 | 6.0 | 0.00 | 0.09 | 0.01 | 46 | 1019.5 |
| 20260831160551 | 73 | 0 | 0.0 | 3.0 | 0.00 | 0.09 | 0.01 | 52 | 1019.5 |
| 20260831160106 | 72 | 0 | 0.0 | 3.0 | 0.00 | 0.09 | 0.01 | 50 | 1019.6 |
| 20260831155552 | 72 | 0 | 0.0 | 8.0 | 0.00 | 0.09 | 0.01 | 50 | 1019.9 |
| 20260831155053 | 72 | 0 | 0.0 | 8.0 | 0.00 | 0.09 | 0.01 | 51 | 1020.0 |
| 20260831154624 | 72 | 0 | 0.0 | 8.0 | 0.00 | 0.09 | 0.01 | 53 | 1020.0 |
| 20260831154051 | 71 | 0 | 0.0 | 4.0 | 0.00 | 0.09 | 0.01 | 54 | 1020.0 |
| 20260831153552 | 71 | 0 | 0.0 | 4.0 | 0.00 | 0.09 | 0.01 | 52 | 1019.9 |
| 20260831153057 | 71 | 0 | 0.0 | 4.0 | 0.00 | 0.09 | 0.01 | 56 | 1019.9 |
| 20260831152551 | 70 | 0 | 0.0 | 3.0 | 0.00 | 0.09 | 0.01 | 59 | 1019.8 |
| 20260831152052 | 70 | 0 | 0.0 | 5.0 | 0.00 | 0.09 | 0.01 | 57 | 1019.9 |
| 20260831151602 | 70 | 68 | 0.0 | 5.0 | 0.00 | 0.09 | 0.01 | 62 | 1019.9 |
| 20260831151050 | 69 | 0 | 0.0 | 3.0 | 0.00 | 0.09 | 0.01 | 64 | 1020.0 |
| 20260831150549 | 68 | 0 | 0.0 | 3.0 | 0.00 | 0.09 | 0.01 | 67 | 1020.0 |
| 20260831145551 | 68 | 0 | 0.0 | 0.0 | 0.00 | 0.09 | 0.01 | 67 | 1020.5 |
| 20260831145051 | 68 | 0 | 0.0 | 0.0 | 0.00 | 0.09 | 0.01 | 68 | 1020.6 |
| 20260831144600 | 67 | 0 | 0.0 | 0.0 | 0.00 | 0.09 | 0.01 | 67 | 1020.6 |
| 20260831144051 | 67 | 0 | 0.0 | 0.0 | 0.00 | 0.09 | 0.01 | 68 | 1020.6 |
| 20260831143552 | 66 | 0 | 0.0 | 0.0 | 0.00 | 0.09 | 0.01 | 68 | 1020.7 |
| 20260831143107 | 66 | 0 | 0.0 | 0.0 | 0.00 | 0.09 | 0.01 | 72 | 1020.8 |
| 20260831142554 | 65 | 0 | 0.0 | 0.0 | 0.00 | 0.09 | 0.01 | 73 | 1020.8 |
| 20260831142052 | 65 | 0 | 0.0 | 0.0 | 0.00 | 0.09 | 0.01 | 74 | 1020.9 |
| 20260831141557 | 65 | 0 | 0.0 | 1.0 | 0.00 | 0.09 | 0.01 | 75 | 1020.9 |
| 20260831141053 | 64 | 0 | 0.0 | 1.0 | 0.00 | 0.09 | 0.01 | 80 | 1020.9 |
| 20260831140551 | 63 | 0 | 0.0 | 2.0 | 0.00 | 0.09 | 0.01 | 78 | 1020.8 |
| 20260831140101 | 63 | 0 | 0.0 | 3.0 | 0.00 | 0.09 | 0.01 | 79 | 1020.8 |
| 20260831135551 | 62 | 0 | 0.0 | 3.0 | 0.00 | 0.09 | 0.01 | 81 | 1020.7 |
| 20260831135052 | 62 | 0 | 0.0 | 2.0 | 0.00 | 0.09 | 0.01 | 82 | 1020.8 |
| 20260831134602 | 61 | 0 | 0.0 | 2.0 | 0.00 | 0.09 | 0.01 | 84 | 1020.7 |
| 20260831134053 | 61 | 0 | 0.0 | 0.0 | 0.00 | 0.09 | 0.01 | 84 | 1020.9 |
| 20260831133551 | 61 | 0 | 0.0 | 0.0 | 0.00 | 0.09 | 0.01 | 87 | 1020.8 |
| 20260831133100 | 60 | 0 | 0.0 | 0.0 | 0.00 | 0.09 | 0.01 | 87 | 1020.9 |
| 20260831132550 | 59 | 0 | 0.0 | 0.0 | 0.00 | 0.09 | 0.01 | 87 | 1020.9 |
| 20260831132054 | 59 | 0 | 0.0 | 0.0 | 0.00 | 0.09 | 0.01 | 88 | 1021.0 |
| 20260831131601 | 59 | 0 | 0.0 | 0.0 | 0.00 | 0.09 | 0.01 | 90 | 1020.9 |
| 20260831131052 | 58 | 0 | 0.0 | 0.0 | 0.00 | 0.09 | 0.01 | 90 | 1020.9 |
| 20260831130551 | 58 | 0 | 0.0 | 0.0 | 0.00 | 0.09 | 0.01 | 91 | 1020.9 |
| 20260831130113 | 57 | 0 | 0.0 | 0.0 | 0.00 | 0.09 | 0.01 | 91 | 1021.1 |
| 20260831125552 | 57 | 0 | 0.0 | 0.0 | 0.00 | 0.09 | 0.01 | 91 | 1020.9 |
| 20260831125054 | 57 | 0 | 0.0 | 0.0 | 0.00 | 0.09 | 0.01 | 92 | 1021.0 |
| 20260831124559 | 56 | 0 | 0.0 | 0.0 | 0.00 | 0.09 | 0.01 | 93 | 1020.8 |
| 20260831124052 | 56 | 0 | 0.0 | 0.0 | 0.00 | 0.09 | 0.01 | 94 | 1020.8 |
| 20260831123548 | 55 | 0 | 0.0 | 0.0 | 0.00 | 0.09 | 0.01 | 95 | 1020.8 |
| 20260831123100 | 54 | 0 | 0.0 | 0.0 | 0.00 | 0.09 | 0.01 | 96 | 1020.9 |
| 20260831122548 | 54 | 0 | 0.0 | 0.0 | 0.00 | 0.09 | 0.01 | 96 | 1020.8 |
| 20260831122053 | 53 | 0 | 0.0 | 0.0 | 0.00 | 0.09 | 0.01 | 96 | 1021.1 |
| 20260831121559 | 52 | 0 | 0.0 | 0.0 | 0.00 | 0.09 | 0.01 | 96 | 1020.8 |
| 20260831121051 | 52 | 0 | 0.0 | 1.0 | 0.00 | 0.09 | 0.01 | 96 | 1020.8 |
| 20260831120547 | 51 | 0 | 0.0 | 1.0 | 0.00 | 0.09 | 0.01 | 96 | 1020.9 |
| 20260831115550 | 50 | 0 | 0.0 | 0.0 | 0.00 | 0.09 | 0.01 | 95 | 1020.8 |
| 20260831115052 | 50 | 0 | 0.0 | 0.0 | 0.00 | 0.09 | 0.01 | 95 | 1020.8 |
| 20260831114608 | 50 | 0 | 0.0 | 0.0 | 0.00 | 0.09 | 0.01 | 95 | 1020.7 |
| 20260831114054 | 50 | 0 | 0.0 | 0.0 | 0.00 | 0.09 | 0.01 | 95 | 1020.7 |
| 20260831113551 | 50 | 0 | 0.0 | 0.0 | 0.00 | 0.09 | 0.01 | 95 | 1020.8 |
| 20260831113130 | 50 | 0 | 0.0 | 0.0 | 0.00 | 0.09 | 0.01 | 95 | 1020.8 |
| 20260831112553 | 50 | 0 | 0.0 | 0.0 | 0.00 | 0.09 | 0.01 | 95 | 1020.7 |
| 20260831112051 | 50 | 0 | 0.0 | 0.0 | 0.00 | 0.09 | 0.01 | 95 | 1020.7 |
| 20260831111600 | 50 | 0 | 0.0 | 0.0 | 0.00 | 0.09 | 0.01 | 95 | 1020.8 |
| 20260831111052 | 50 | 0 | 0.0 | 0.0 | 0.00 | 0.09 | 0.01 | 95 | 1020.6 |
| 20260831110554 | 50 | 0 | 0.0 | 0.0 | 0.00 | 0.09 | 0.01 | 95 | 1020.5 |
| 20260831110100 | 50 | 0 | 0.0 | 0.0 | 0.00 | 0.09 | 0.01 | 95 | 1020.4 |
| 20260831105552 | 50 | 0 | 0.0 | 0.0 | 0.00 | 0.09 | 0.01 | 95 | 1020.5 |
| 20260831105052 | 50 | 0 | 0.0 | 0.0 | 0.00 | 0.09 | 0.01 | 95 | 1020.6 |
| 20260831104557 | 50 | 0 | 0.0 | 0.0 | 0.00 | 0.09 | 0.01 | 95 | 1020.4 |
| 20260831104051 | 50 | 0 | 0.0 | 0.0 | 0.00 | 0.09 | 0.01 | 95 | 1020.4 |
| 20260831103555 | 50 | 0 | 0.0 | 0.0 | 0.00 | 0.09 | 0.01 | 94 | 1020.4 |
| 20260831103109 | 49 | 0 | 0.0 | 0.0 | 0.00 | 0.09 | 0.01 | 94 | 1020.5 |
| 20260831102551 | 50 | 0 | 0.0 | 0.0 | 0.00 | 0.09 | 0.01 | 94 | 1020.5 |
| 20260831102051 | 50 | 0 | 0.0 | 0.0 | 0.00 | 0.09 | 0.01 | 94 | 1020.2 |
| 20260831101604 | 50 | 0 | 0.0 | 0.0 | 0.00 | 0.09 | 0.01 | 94 | 1020.2 |
| 20260831101049 | 50 | 0 | 0.0 | 0.0 | 0.00 | 0.09 | 0.01 | 94 | 1020.2 |
| 20260831100553 | 51 | 0 | 0.0 | 0.0 | 0.00 | 0.09 | 0.01 | 94 | 1020.2 |
| 20260831095552 | 51 | 0 | 0.0 | 0.0 | 0.00 | 0.09 | 0.01 | 94 | 1020.0 |
| 20260831095051 | 51 | 0 | 0.0 | 0.0 | 0.01 | 0.09 | 0.01 | 94 | 1019.8 |
| 20260831094559 | 52 | 0 | 0.0 | 0.0 | 0.01 | 0.09 | 0.01 | 94 | 1019.8 |
| 20260831094051 | 52 | 0 | 0.0 | 0.0 | 0.01 | 0.09 | 0.01 | 94 | 1019.6 |
| 20260831093548 | 52 | 0 | 0.0 | 0.0 | 0.01 | 0.09 | 0.01 | 94 | 1019.6 |
| 20260831093107 | 52 | 0 | 0.0 | 0.0 | 0.01 | 0.09 | 0.01 | 94 | 1019.6 |
| 20260831092551 | 52 | 0 | 0.0 | 0.0 | 0.01 | 0.09 | 0.01 | 95 | 1019.5 |
| 20260831092051 | 52 | 0 | 0.0 | 0.0 | 0.01 | 0.09 | 0.01 | 95 | 1019.6 |
| 20260831091601 | 52 | 0 | 0.0 | 0.0 | 0.01 | 0.09 | 0.01 | 95 | 1019.6 |
| 20260831091052 | 52 | 0 | 0.0 | 0.0 | 0.01 | 0.09 | 0.01 | 95 | 1019.5 |
| 20260831090550 | 52 | 0 | 0.0 | 0.0 | 0.01 | 0.09 | 0.01 | 95 | 1019.5 |
| 20260831090107 | 52 | 0 | 0.0 | 0.0 | 0.01 | 0.09 | 0.01 | 94 | 1019.5 |
| 20260831085552 | 52 | 0 | 0.0 | 0.0 | 0.01 | 0.09 | 0.01 | 94 | 1019.5 |
| 20260831085053 | 52 | 0 | 0.0 | 0.0 | 0.00 | 0.08 | 0.00 | 94 | 1019.4 |
| 20260831084556 | 52 | 0 | 0.0 | 0.0 | 0.00 | 0.08 | 0.00 | 94 | 1019.4 |
| 20260831084052 | 53 | 0 | 0.0 | 0.0 | 0.00 | 0.08 | 0.00 | 94 | 1019.4 |
| 20260831083551 | 53 | 0 | 0.0 | 0.0 | 0.00 | 0.08 | 0.00 | 94 | 1019.3 |
| 20260831083101 | 53 | 0 | 0.0 | 0.0 | 0.00 | 0.08 | 0.00 | 94 | 1019.4 |
| 20260831082552 | 53 | 0 | 0.0 | 0.0 | 0.00 | 0.08 | 0.00 | 94 | 1019.5 |
| 20260831082052 | 53 | 0 | 0.0 | 0.0 | 0.00 | 0.08 | 0.00 | 94 | 1019.4 |
| 20260831081609 | 53 | 0 | 0.0 | 0.0 | 0.00 | 0.08 | 0.00 | 95 | 1019.3 |
| 20260831081051 | 53 | 0 | 0.0 | 0.0 | 0.00 | 0.08 | 0.00 | 95 | 1019.3 |
| 20260831080552 | 54 | 0 | 0.0 | 0.0 | 0.00 | 0.08 | 0.00 | 95 | 1019.2 |
| 20260831080057 | 54 | 0 | 0.0 | 0.0 | 0.00 | 0.08 | 0.00 | 95 | 1019.3 |
| 20260831075551 | 54 | 0 | 0.0 | 0.0 | 0.00 | 0.08 | 0.00 | 95 | 1019.2 |
| 20260831075051 | 54 | 0 | 0.0 | 0.0 | 0.00 | 0.08 | 0.00 | 95 | 1019.0 |
| 20260831074557 | 54 | 0 | 0.0 | 0.0 | 0.00 | 0.08 | 0.00 | 95 | 1019.0 |
| 20260831074051 | 54 | 0 | 0.0 | 0.0 | 0.00 | 0.08 | 0.00 | 95 | 1019.1 |
| 20260831073551 | 54 | 0 | 0.0 | 0.0 | 0.00 | 0.08 | 0.00 | 95 | 1018.8 |
| 20260831073101 | 54 | 0 | 0.0 | 0.0 | 0.00 | 0.08 | 0.00 | 95 | 1018.8 |
| 20260831072550 | 54 | 0 | 0.0 | 0.0 | 0.00 | 0.08 | 0.00 | 95 | 1018.8 |
| 20260831072051 | 54 | 0 | 0.0 | 0.0 | 0.00 | 0.08 | 0.00 | 95 | 1018.9 |
| 20260831071602 | 54 | 0 | 0.0 | 1.0 | 0.00 | 0.08 | 0.00 | 95 | 1018.9 |
| 20260831071051 | 54 | 0 | 0.0 | 1.0 | 0.00 | 0.08 | 0.00 | 95 | 1018.8 |
| 20260831070551 | 54 | 0 | 0.0 | 2.0 | 0.00 | 0.08 | 0.00 | 95 | 1018.8 |
| 20260831070100 | 54 | 0 | 0.0 | 2.0 | 0.00 | 0.08 | 0.00 | 95 | 1018.8 |
| 20260831065548 | 54 | 0 | 0.0 | 1.0 | 0.00 | 0.08 | 0.00 | 95 | 1018.7 |
| 20260831065050 | 54 | 0 | 0.0 | 0.0 | 0.00 | 0.08 | 0.00 | 95 | 1018.8 |
| 20260831064603 | 54 | 0 | 0.0 | 0.0 | 0.00 | 0.08 | 0.00 | 95 | 1018.6 |
| 20260831064052 | 54 | 0 | 0.0 | 0.0 | 0.00 | 0.08 | 0.00 | 95 | 1018.6 |
| 20260831063552 | 54 | 0 | 0.0 | 0.0 | 0.00 | 0.08 | 0.00 | 95 | 1018.7 |
| 20260831063102 | 54 | 0 | 0.0 | 0.0 | 0.00 | 0.08 | 0.00 | 95 | 1018.7 |
| 20260831062553 | 54 | 0 | 0.0 | 0.0 | 0.00 | 0.08 | 0.00 | 95 | 1018.6 |
| 20260831062052 | 54 | 0 | 0.0 | 0.0 | 0.00 | 0.08 | 0.00 | 95 | 1018.7 |
| 20260831061614 | 54 | 0 | 0.0 | 0.0 | 0.00 | 0.08 | 0.00 | 95 | 1018.7 |
| 20260831061052 | 54 | 0 | 0.0 | 0.0 | 0.00 | 0.08 | 0.00 | 95 | 1018.6 |
| 20260831060551 | 54 | 0 | 0.0 | 0.0 | 0.00 | 0.08 | 0.00 | 95 | 1018.7 |
| 20260831060107 | 54 | 0 | 0.0 | 0.0 | 0.00 | 0.08 | 0.00 | 95 | 1018.7 |
| 20260831055552 | 54 | 0 | 0.0 | 0.0 | 0.00 | 0.08 | 0.00 | 95 | 1018.6 |
| 20260831055048 | 54 | 0 | 0.0 | 0.0 | 0.00 | 0.08 | 0.00 | 95 | 1018.6 |
| 20260831054607 | 55 | 0 | 0.0 | 0.0 | 0.00 | 0.08 | 0.00 | 95 | 1018.6 |
| 20260831054051 | 55 | 0 | 0.0 | 0.0 | 0.00 | 0.08 | 0.00 | 95 | 1018.5 |
| 20260831053553 | 55 | 0 | 0.0 | 0.0 | 0.00 | 0.08 | 0.00 | 95 | 1018.6 |
| 20260831053102 | 55 | 0 | 0.0 | 0.0 | 0.00 | 0.08 | 0.00 | 94 | 1018.4 |
| 20260831052552 | 55 | 0 | 0.0 | 0.0 | 0.00 | 0.08 | 0.00 | 94 | 1018.3 |
| 20260831052050 | 55 | 0 | 0.0 | 0.0 | 0.00 | 0.08 | 0.00 | 94 | 1018.3 |
| 20260831051610 | 55 | 0 | 0.0 | 0.0 | 0.00 | 0.08 | 0.00 | 95 | 1018.3 |
| 20260831051051 | 55 | 0 | 0.0 | 0.0 | 0.00 | 0.08 | 0.00 | 94 | 1018.3 |
| 20260831050551 | 55 | 0 | 0.0 | 0.0 | 0.00 | 0.08 | 0.00 | 94 | 1018.1 |
| 20260831050107 | 56 | 0 | 0.0 | 0.0 | 0.00 | 0.08 | 0.00 | 94 | 1018.3 |
| 20260831045551 | 56 | 0 | 0.0 | 0.0 | 0.00 | 0.08 | 0.00 | 94 | 1018.3 |
| 20260831045052 | 56 | 0 | 0.0 | 0.0 | 0.00 | 0.08 | 0.00 | 94 | 1018.3 |
| 20260831044613 | 56 | 0 | 0.0 | 0.0 | 0.00 | 0.08 | 0.00 | 93 | 1018.2 |
| 20260831044051 | 56 | 0 | 0.0 | 0.0 | 0.00 | 0.08 | 0.00 | 94 | 1018.2 |
| 20260831043551 | 56 | 0 | 0.0 | 0.0 | 0.00 | 0.08 | 0.00 | 94 | 1018.2 |
| 20260831043109 | 57 | 0 | 0.0 | 0.0 | 0.00 | 0.08 | 0.00 | 93 | 1018.1 |
| 20260831042550 | 57 | 0 | 0.0 | 0.0 | 0.00 | 0.08 | 0.00 | 93 | 1018.1 |
| 20260831042050 | 57 | 0 | 0.0 | 1.0 | 0.00 | 0.08 | 0.00 | 93 | 1018.1 |
| 20260831041602 | 57 | 0 | 0.0 | 1.0 | 0.00 | 0.08 | 0.00 | 93 | 1018.1 |
| 20260831041051 | 57 | 0 | 0.0 | 0.0 | 0.00 | 0.08 | 0.00 | 93 | 1018.0 |
| 20260831040552 | 58 | 0 | 0.0 | 0.0 | 0.00 | 0.08 | 0.00 | 92 | 1018.1 |
| 20260831040059 | 58 | 0 | 0.0 | 0.0 | 0.00 | 0.08 | 0.00 | 92 | 1017.8 |
| 20260831035550 | 58 | 0 | 0.0 | 0.0 | 0.00 | 0.08 | 0.08 | 91 | 1017.8 |
| 20260831035050 | 59 | 0 | 0.0 | 0.0 | 0.00 | 0.08 | 0.08 | 91 | 1017.9 |
| 20260831034604 | 59 | 0 | 0.0 | 4.0 | 0.00 | 0.08 | 0.08 | 91 | 1017.8 |
| 20260831034050 | 59 | 0 | 0.0 | 4.0 | 0.00 | 0.08 | 0.08 | 91 | 1017.7 |
| 20260831033551 | 59 | 0 | 0.0 | 0.0 | 0.00 | 0.08 | 0.08 | 90 | 1017.9 |
| 20260831033107 | 59 | 0 | 0.0 | 1.0 | 0.00 | 0.08 | 0.08 | 91 | 1017.9 |
| 20260831032551 | 60 | 0 | 0.0 | 1.0 | 0.00 | 0.08 | 0.08 | 91 | 1017.8 |
| 20260831032055 | 60 | 0 | 0.0 | 0.0 | 0.00 | 0.08 | 0.08 | 90 | 1017.8 |
| 20260831031602 | 60 | 0 | 0.0 | 0.0 | 0.00 | 0.08 | 0.08 | 89 | 1017.8 |
| 20260831031052 | 60 | 0 | 0.0 | 3.0 | 0.00 | 0.08 | 0.08 | 88 | 1017.8 |
| 20260831030551 | 61 | 0 | 0.0 | 3.0 | 0.00 | 0.08 | 0.08 | 88 | 1018.1 |
| 20260831030059 | 61 | 0 | 0.0 | 3.0 | 0.00 | 0.08 | 0.08 | 88 | 1018.0 |
| 20260831025551 | 61 | 0 | 0.0 | 5.0 | 0.00 | 0.08 | 0.08 | 89 | 1017.9 |
| 20260831025051 | 61 | 0 | 0.0 | 5.0 | 0.00 | 0.08 | 0.08 | 90 | 1018.0 |
| 20260831024603 | 61 | 0 | 1.0 | 5.0 | 0.00 | 0.08 | 0.08 | 91 | 1018.1 |
| 20260831024052 | 62 | 0 | 0.0 | 0.0 | 0.00 | 0.08 | 0.08 | 92 | 1018.0 |
| 20260831023554 | 62 | 0 | 0.0 | 0.0 | 0.00 | 0.08 | 0.08 | 92 | 1018.2 |
| 20260831023056 | 62 | 0 | 0.0 | 2.0 | 0.00 | 0.08 | 0.08 | 93 | 1018.1 |
| 20260831022550 | 62 | 0 | 0.0 | 2.0 | 0.00 | 0.08 | 0.08 | 93 | 1018.1 |
| 20260831022051 | 62 | 0 | 0.0 | 2.0 | 0.00 | 0.08 | 0.08 | 94 | 1018.0 |
| 20260831021601 | 62 | 0 | 0.0 | 0.0 | 0.00 | 0.08 | 0.08 | 93 | 1018.0 |
| 20260831021051 | 62 | 0 | 0.0 | 0.0 | 0.00 | 0.08 | 0.08 | 93 | 1017.5 |
| 20260831020552 | 62 | 0 | 0.0 | 0.0 | 0.00 | 0.08 | 0.08 | 93 | 1017.4 |
| 20260831020058 | 62 | 0 | 0.0 | 0.0 | 0.00 | 0.08 | 0.08 | 93 | 1017.2 |
| 20260831015553 | 62 | 0 | 0.0 | 0.0 | 0.00 | 0.08 | 0.08 | 92 | 1017.3 |
| 20260831015048 | 62 | 0 | 0.0 | 0.0 | 0.00 | 0.08 | 0.08 | 92 | 1017.1 |
| 20260831014556 | 63 | 0 | 0.0 | 0.0 | 0.00 | 0.08 | 0.08 | 92 | 1017.1 |
| 20260831014049 | 63 | 0 | 0.0 | 0.0 | 0.00 | 0.08 | 0.08 | 92 | 1017.0 |
| 20260831013548 | 63 | 0 | 0.0 | 0.0 | 0.01 | 0.08 | 0.08 | 92 | 1016.9 |
| 20260831013110 | 63 | 0 | 0.0 | 0.0 | 0.01 | 0.08 | 0.08 | 92 | 1016.8 |
| 20260831012551 | 63 | 0 | 0.0 | 0.0 | 0.01 | 0.08 | 0.08 | 92 | 1016.9 |
| 20260831012054 | 63 | 0 | 0.0 | 0.0 | 0.02 | 0.08 | 0.08 | 92 | 1016.8 |
| 20260831011602 | 63 | 0 | 0.0 | 0.0 | 0.04 | 0.08 | 0.08 | 92 | 1016.9 |
| 20260831011050 | 63 | 0 | 0.0 | 0.0 | 0.06 | 0.08 | 0.08 | 91 | 1016.7 |
| 20260831010553 | 64 | 0 | 0.0 | 0.0 | 0.07 | 0.08 | 0.08 | 91 | 1016.7 |
| 20260831005551 | 64 | 0 | 0.0 | 0.0 | 0.08 | 0.08 | 0.08 | 90 | 1016.6 |
| 20260831005051 | 64 | 0 | 0.0 | 0.0 | 0.08 | 0.08 | 0.08 | 90 | 1016.6 |
| 20260831004603 | 64 | 0 | 0.0 | 0.0 | 0.08 | 0.08 | 0.08 | 89 | 1016.6 |
| 20260831004050 | 64 | 0 | 0.0 | 0.0 | 0.08 | 0.08 | 0.08 | 89 | 1016.7 |
| 20260831003552 | 65 | 0 | 0.0 | 0.0 | 0.07 | 0.07 | 0.07 | 88 | 1016.7 |
| 20260831003107 | 65 | 0 | 0.0 | 1.0 | 0.07 | 0.07 | 0.07 | 88 | 1016.7 |
| 20260831002551 | 65 | 0 | 0.0 | 1.0 | 0.07 | 0.07 | 0.07 | 87 | 1016.6 |
| 20260831002051 | 66 | 0 | 0.0 | 1.0 | 0.06 | 0.06 | 0.06 | 87 | 1016.7 |
| 20260831001600 | 66 | 0 | 0.0 | 0.0 | 0.04 | 0.04 | 0.04 | 86 | 1016.4 |
| 20260831001051 | 67 | 0 | 0.0 | 0.0 | 0.02 | 0.02 | 0.02 | 84 | 1016.2 |
| 20260831000551 | 67 | 0 | 0.0 | 0.0 | 0.01 | 0.01 | 0.01 | 82 | 1016.2 |
| 20260831000058 | 67 | 0 | 0.0 | 0.0 | 0.00 | 0.00 | 0.00 | 81 | 1015.7 |
| 20260830235551 | 67 | 0 | 0.0 | 0.0 | 0.00 | 0.00 | 0.00 | 81 | 1015.6 |
| 20260830235049 | 67 | 0 | 0.0 | 0.0 | 0.00 | 0.00 | 0.00 | 80 | 1015.7 |
| 20260830234603 | 68 | 0 | 0.0 | 0.0 | 0.00 | 0.00 | 0.00 | 78 | 1015.5 |
| 20260830234047 | 68 | 0 | 0.0 | 0.0 | 0.00 | 0.00 | 0.00 | 76 | 1015.5 |
| 20260830233549 | 68 | 0 | 0.0 | 0.0 | 0.00 | 0.00 | 0.00 | 75 | 1015.4 |
| 20260830233105 | 68 | 0 | 0.0 | 0.0 | 0.00 | 0.00 | 0.00 | 75 | 1015.5 |
| 20260830232548 | 68 | 0 | 0.0 | 0.0 | 0.00 | 0.00 | 0.00 | 74 | 1015.4 |
| 20260830232052 | 69 | 0 | 0.0 | 1.0 | 0.00 | 0.00 | 0.00 | 74 | 1015.4 |
| 20260830231558 | 69 | 0 | 0.0 | 1.0 | 0.00 | 0.00 | 0.00 | 73 | 1015.4 |
| 20260830231050 | 69 | 0 | 0.0 | 0.0 | 0.00 | 0.00 | 0.00 | 73 | 1015.4 |
| 20260830230550 | 69 | 0 | 0.0 | 0.0 | 0.00 | 0.00 | 0.00 | 73 | 1015.4 |
| 20260830230100 | 69 | 0 | 0.0 | 0.0 | 0.00 | 0.00 | 0.00 | 73 | 1015.3 |